Location: U-46 Planetarium
(42.0300°N, 88.2740°W)
Time: 22:20:35
(UTC-05:00)

SL-08 R/B - Pass Details

Date: 16 December 2017
Orbit: 947 x 993 km, 83.0° (Epoch: 21 July)

Event Time Altitude Azimuth Distance (km) Brightness Sun altitude
Rises 18:40:16 0° 353° (N) 3,703 7.5 -24.6°
Reaches altitude 10° 18:42:49 10° 356° (N) 2,745 6.8 -25.1°
Maximum altitude 18:49:07 75° 81° (E) 1,011 4.3 -26.2°
Drops below altitude 10° 18:55:17 10° 167° (SSE) 2,695 6.7 -27.4°
Sets 18:57:46 0° 169° (S) 3,631 7.5 -27.8°
